This is the latest recevied weather packets stored in our database for station/object KC1TEM-13. If no packets are shown the sender has not sent any weather packets the latest 10 day(s).
| Time | Temp. | Humidity | Pressure | Rain* | Wind** | Luminosity | Snow |
|---|---|---|---|---|---|---|---|
| 1787848861 | 27.78° C | 64% | 1017.5 hPa | 0 mm | - | 751 W/m² | - |
| 1787848561 | 27.22° C | 67% | 1017.9 hPa | 0 mm | - | 796 W/m² | - |
| 1787848261 | 27.22° C | 68% | 1017.9 hPa | 0 mm | - | 800 W/m² | - |
| 1787847956 | 27.22° C | 67% | 1018 hPa | 0 mm | - | 380 W/m² | - |
| 1787847655 | 26.67° C | 70% | 1018.3 hPa | 0 mm | - | 275 W/m² | - |
| 1787847350 | 26.11° C | 70% | 1018.4 hPa | 0 mm | - | 844 W/m² | - |
| 1787847047 | 26.11° C | 70% | 1018.5 hPa | 0 mm | - | 726 W/m² | - |
| 1787846742 | 25.56° C | 71% | 1018.5 hPa | 0 mm | - | 592 W/m² | - |
| 1787846437 | 25° C | 72% | 1018.5 hPa | 0 mm | - | 773 W/m² | - |
| 1787846133 | 25.56° C | 72% | 1018.7 hPa | 0 mm | - | 494 W/m² | - |
| 1787845828 | 26.11° C | 71% | 1018.8 hPa | 0 mm | - | 424 W/m² | - |
| 1787845524 | 26.11° C | 70% | 1018.7 hPa | 0 mm | - | 435 W/m² | - |
| 1787845219 | 25.56° C | 71% | 1018.8 hPa | 0 mm | - | 771 W/m² | - |
| 1787844915 | 25° C | 74% | 1018.7 hPa | 0 mm | - | 644 W/m² | - |
| 1787844614 | 25° C | 75% | 1018.8 hPa | 0 mm | - | 794 W/m² | - |
| 1787844309 | 25° C | 74% | 1018.6 hPa | 0 mm | - | 454 W/m² | - |
| 1787844009 | 23.89° C | 76% | 1019 hPa | 0 mm | - | 768 W/m² | - |
| 1787843709 | 23.89° C | 76% | 1019.1 hPa | 0 mm | - | 330 W/m² | - |
| 1787843404 | 23.89° C | 77% | 1019.1 hPa | 0 mm | - | 300 W/m² | - |
| 1787843101 | 23.89° C | 77% | 1019.1 hPa | 0 mm | - | 388 W/m² | - |
| 1787842800 | 24.44° C | 76% | 1019.2 hPa | 0 mm | - | 483 W/m² | - |
| 1787842495 | 24.44° C | 76% | 1019 hPa | 0 mm | - | 229 W/m² | - |
| 1787842194 | 24.44° C | 75% | 1019.1 hPa | 0 mm | - | 331 W/m² | - |
| 1787841889 | 25° C | 75% | 1019.1 hPa | 0 mm | - | 244 W/m² | - |
| 1787841586 | 25° C | 74% | 1018.9 hPa | 0 mm | - | 322 W/m² | - |
* Rain latest hour (hover to see other rain measurements)
** Current wind speed in m/s (hover to see current wind gust speed)